Tracking 28792 objects as of 25-Apr-2024
HD Live streaming from Space Station
objects crossing your sky now

STARLINK-2456

Track STARLINK-2456 now!
10-day predictions
STARLINK-2456 is classified as:


NORAD ID: 47846
Int'l Code: 2021-018BM
Perigee: 366.5 km
Apogee: 367.9 km
Inclination: 53.1 °
Period: 91.7 minutes
Semi major axis: 6738 km
RCS: Unknown
Launch date: March 11, 2021
Source: United States (US)
Launch site: AIR FORCE EASTERN TEST RANGE (AFETR)
Your satellite tracking list
Your tracking list is empty




NASA's NSSDC Master Catalog

Two Line Element Set (TLE):
1 47846U 21018BM  24116.25001157  .00126731  00000-0  10402-2 0  9995
2 47846  53.0523  60.6270 0001080  91.5439  65.5811 15.69586068173517
Source of the keplerian elements: AFSPC